Hourly Data Report for October 04, 2016

All times are specified in Local Standard Time (LST). Add 1 hour to adjust for Daylight Saving Time where and when it is observed.

KUGAARUK CLIMATE
NUNAVUT

68°32'15.060" N
89°47'47.020" W
15.80 m
2303094
71407
NBB

Download Data

Hourly Data (October 2016)
Hourly Data Report for October 4, 2016
Temp Definition
°C
Dew Point Temp Definition
°C
Rel Hum Definition
%
Wind Dir Definition
10's deg

Wind Spd Definition
km/h
Visibility Definition
km
Stn Press Definition
kPa
Hmdx Definition


Wind Chill Definition


Weather Definition


TIME
00:00 -2.5 -3.4 94 2 22   99.69   -9 LegendNANA
01:00 -2.6 -3.6 93 2 17   99.72   -8 LegendNANA
02:00 -2.2 -3.3 93 1 20   99.75   -8 LegendNANA
03:00 -2.4 -3.9 89 1 22   99.81   -9 LegendNANA
04:00 -2.6 -4.4 87 35 24   99.86   -9 LegendNANA
05:00 -2.8 -5.0 85 36 20   99.93   -9 LegendNANA
06:00 -3.1 -6.4 78 35 25   99.98   -10 LegendNANA
07:00 -2.9 -6.2 78 35 24   100.05   -10 LegendNANA
08:00 -2.9 -6.4 77 34 27   100.10   -10 LegendNANA
09:00 -3.2 -6.9 76 34 25   100.17   -10 LegendNANA
10:00 -3.5 -6.1 82 32 28   100.23   -11 LegendNANA
11:00 -3.3 -6.0 82 32 28   100.28   -11 LegendNANA
12:00 -3.0 -5.7 82 32 27   100.35   -10 LegendNANA
13:00 -3.0 -5.9 80 32 27   100.43   -10 LegendNANA
14:00 -3.0 -5.6 82 32 25   100.50   -10 LegendNANA
15:00 -3.4 -5.7 84 32 27   100.59   -11 LegendNANA
16:00 -3.5 -6.2 81 32 25   100.69   -10 LegendNANA
17:00 -3.8 -6.0 85 33 26   100.78   -11 LegendNANA
18:00 -4.4 -7.6 78 34 26   100.85   -12 LegendNANA
19:00 -4.8 -7.7 80 31 21   100.95   -11 LegendNANA
20:00 -4.9 -7.5 82 31 20   101.02   -11 LegendNANA
21:00 -5.5 -8.1 81 32 18   101.10   -12 LegendNANA
22:00 -5.6 -8.4 81 32 22   101.14   -13 LegendNANA
23:00 -5.3 -7.6 84 31 25   101.22   -13 LegendNANA

Notes on Data Quality.

Legend

  • E = Estimated
  • M = Missing
  • NA = Not Available
  • ‡ = Partner data that is not subject to review by the National Climate Archives
Date modified: